Location: Unspecified
(29.9680°N, 0.0000°E)
Time: 11:37:26
(UTC+00:00)

Explorer 7 - Pass Details

Date: 03 July 2019
Orbit: 485 x 680 km, 50.3° (Epoch: 20 August)

Event Time Altitude Azimuth Distance (km) Brightness Sun altitude
Rises 04:31:32 0° 257° (WSW) 2,569 - -6.8°
Exits shadow 04:33:01 - 264° (W) 2,035 9.2 -6.5°
Reaches altitude 10° 04:34:01 10° 272° (W) 1,710 8.8 -6.4°
Maximum altitude 04:37:07 23° 326° (NW) 1,147 8.4 -5.8°
Drops below altitude 10° 04:40:21 10° 19° (NNE) 1,790 10.3 -5.2°
Sets 04:43:02 0° 34° (NE) 2,724 11.7 -4.7°
